When you browse on this site, cookies collect data to enhance your experience and personalize the content and advertising you see.
Visit our Privacy Policy to learn more. By continuing to use the site, you agree to this use of cookies and data.
  • In Österreich
  • Länderverzeichnis
  • Für 7 Tage
  • Wassertemperatur
  • Wetterkarte
  • News
  • Widgets
  • user-avatar
    Anmelden

    Stündliche Wetter Yadgir

    Heute, 30 Mai, Samstag

    Zeit Temperatur Niederschläge Wind Luftdruck Luftfeuchtigkeit
    00:00 +39°C° 0 mm 3 m/S 722 mmHg 24%
    01:00 +39°C° 0 mm 5 m/S 722 mmHg 28%
    02:00 +38°C° 0 mm 7 m/S 722 mmHg 33%
    03:00 +36°C° 0 mm 6 m/S 722 mmHg 36%
    04:00 +35°C° 0 mm 5 m/S 722 mmHg 38%
    05:00 +34°C° 0 mm 3 m/S 723 mmHg 41%
    06:00 +36°C° 0 mm 4 m/S 723 mmHg 37%
    07:00 +37°C° 0 mm 4 m/S 724 mmHg 34%
    08:00 +38°C° 0 mm 4 m/S 724 mmHg 30%
    09:00 +41°C° 0 mm 4 m/S 724 mmHg 26%
    10:00 +42°C° 0 mm 4 m/S 724 mmHg 23%
    11:00 +44°C° 0 mm 4 m/S 723 mmHg 19%
    12:00 +44°C° 0 mm 3 m/S 723 mmHg 18%
    13:00 +45°C° 0 mm 2 m/S 722 mmHg 16%
    14:00 +45°C° 0 mm 1 m/S 721 mmHg 15%
    15:00 +45°C° 0 mm 2 m/S 721 mmHg 16%
    16:00 +45°C° 0 mm 2 m/S 721 mmHg 16%
    17:00 +44°C° 0 mm 3 m/S 720 mmHg 17%
    18:00 +43°C° 0 mm 2 m/S 721 mmHg 18%
    19:00 +42°C° 0 mm 2 m/S 721 mmHg 19%
    20:00 +41°C° 0 mm 1 m/S 721 mmHg 20%
    21:00 +40°C° 0 mm 2 m/S 722 mmHg 22%
    22:00 +40°C° 0 mm 3 m/S 723 mmHg 23%
    23:00 +40°C° 0 mm 4 m/S 723 mmHg 25%

    Morgen, 31 Mai, Sonntag

    Zeit Temperatur Niederschläge Wind Luftdruck Luftfeuchtigkeit
    00:00 +39°C° 0.3 mm 5 m/S 723 mmHg 33%
    01:00 +38°C° 0.3 mm 6 m/S 723 mmHg 41%
    02:00 +35°C° 0.3 mm 7 m/S 723 mmHg 50%
    03:00 +35°C° 0.1 mm 7 m/S 723 mmHg 53%
    04:00 +34°C° 0.1 mm 6 m/S 723 mmHg 56%
    05:00 +33°C° 0.1 mm 6 m/S 724 mmHg 59%
    06:00 +34°C° 0.1 mm 5 m/S 724 mmHg 55%
    07:00 +35°C° 0.1 mm 5 m/S 724 mmHg 52%
    08:00 +36°C° 0.1 mm 4 m/S 725 mmHg 49%
    09:00 +37°C° 0 mm 4 m/S 725 mmHg 43%
    10:00 +38°C° 0 mm 4 m/S 724 mmHg 37%
    11:00 +40°C° 0 mm 4 m/S 724 mmHg 32%
    12:00 +40°C° 0 mm 3 m/S 724 mmHg 30%
    13:00 +40°C° 0 mm 3 m/S 723 mmHg 28%
    14:00 +41°C° 0 mm 2 m/S 722 mmHg 26%
    15:00 +41°C° 0 mm 2 m/S 722 mmHg 25%
    16:00 +41°C° 0 mm 2 m/S 721 mmHg 24%
    17:00 +41°C° 0 mm 2 m/S 721 mmHg 24%
    18:00 +40°C° 0.1 mm 2 m/S 722 mmHg 28%
    19:00 +38°C° 0.1 mm 3 m/S 722 mmHg 31%
    20:00 +37°C° 0.1 mm 3 m/S 723 mmHg 35%
    21:00 +36°C° 0.3 mm 2 m/S 723 mmHg 37%
    22:00 +35°C° 0.3 mm 2 m/S 723 mmHg 39%
    23:00 +34°C° 0.3 mm 1 m/S 724 mmHg 41%

    übermorgen, 1 Juni, Montag

    Zeit Temperatur Niederschläge Wind Luftdruck Luftfeuchtigkeit
    00:00 +33°C° 0.3 mm 1 m/S 723 mmHg 42%
    01:00 +34°C° 0.3 mm 2 m/S 723 mmHg 43%
    02:00 +34°C° 0.3 mm 2 m/S 723 mmHg 44%
    03:00 +32°C° 0.2 mm 2 m/S 723 mmHg 44%
    04:00 +32°C° 0.2 mm 2 m/S 723 mmHg 45%
    05:00 +31°C° 0.2 mm 2 m/S 723 mmHg 45%
    06:00 +34°C° 0 mm 2 m/S 724 mmHg 42%
    07:00 +35°C° 0 mm 2 m/S 724 mmHg 39%
    08:00 +36°C° 0 mm 3 m/S 724 mmHg 35%
    09:00 +38°C° 0 mm 2 m/S 724 mmHg 32%
    10:00 +40°C° 0 mm 1 m/S 724 mmHg 30%
    11:00 +38°C° 0 mm 0 m/S 724 mmHg 27%
    12:00 +42°C° 0 mm 1 m/S 723 mmHg 25%
    13:00 +43°C° 0 mm 2 m/S 722 mmHg 23%
    14:00 +43°C° 0 mm 2 m/S 722 mmHg 21%
    15:00 +44°C° 0 mm 3 m/S 721 mmHg 21%
    16:00 +44°C° 0 mm 3 m/S 721 mmHg 21%
    17:00 +43°C° 0 mm 4 m/S 721 mmHg 21%
    18:00 +42°C° 0.2 mm 4 m/S 722 mmHg 26%
    19:00 +40°C° 0.2 mm 5 m/S 722 mmHg 32%
    20:00 +38°C° 0.2 mm 6 m/S 723 mmHg 37%
    21:00 +35°C° 1.2 mm 5 m/S 723 mmHg 45%
    22:00 +33°C° 1.2 mm 4 m/S 724 mmHg 53%
    23:00 +31°C° 1.2 mm 3 m/S 724 mmHg 62%

    2 Juni, Dienstag

    Zeit Temperatur Niederschläge Wind Luftdruck Luftfeuchtigkeit
    00:00 +30°C° 0.4 mm 4 m/S 724 mmHg 62%
    01:00 +30°C° 0.4 mm 4 m/S 724 mmHg 63%
    02:00 +30°C° 0.4 mm 5 m/S 724 mmHg 64%
    03:00 +30°C° 0.9 mm 4 m/S 724 mmHg 64%
    04:00 +30°C° 0.9 mm 3 m/S 724 mmHg 64%
    05:00 +29°C° 0.9 mm 2 m/S 724 mmHg 64%
    06:00 +30°C° 0.1 mm 2 m/S 724 mmHg 61%
    07:00 +31°C° 0.1 mm 2 m/S 724 mmHg 58%
    08:00 +33°C° 0.1 mm 3 m/S 725 mmHg 54%
    09:00 +34°C° 0 mm 2 m/S 724 mmHg 49%
    10:00 +36°C° 0 mm 2 m/S 724 mmHg 44%
    11:00 +36°C° 0 mm 1 m/S 724 mmHg 40%
    12:00 +37°C° 0 mm 1 m/S 724 mmHg 37%
    13:00 +39°C° 0 mm 1 m/S 723 mmHg 34%
    14:00 +40°C° 0 mm 1 m/S 722 mmHg 31%
    15:00 +40°C° 0 mm 2 m/S 722 mmHg 31%
    16:00 +40°C° 0 mm 3 m/S 721 mmHg 31%
    17:00 +40°C° 0 mm 3 m/S 721 mmHg 31%
    18:00 +39°C° 0.2 mm 3 m/S 722 mmHg 34%
    19:00 +38°C° 0.2 mm 4 m/S 722 mmHg 37%
    20:00 +37°C° 0.2 mm 4 m/S 723 mmHg 40%
    21:00 +35°C° 0.7 mm 5 m/S 723 mmHg 47%
    22:00 +34°C° 0.7 mm 7 m/S 723 mmHg 53%
    23:00 +32°C° 0.7 mm 8 m/S 724 mmHg 60%

    3 Juni, Mittwoch

    Zeit Temperatur Niederschläge Wind Luftdruck Luftfeuchtigkeit
    00:00 +32°C° 1.1 mm 7 m/S 723 mmHg 61%
    01:00 +30°C° 1.1 mm 6 m/S 723 mmHg 62%
    02:00 +30°C° 1.1 mm 5 m/S 723 mmHg 63%
    03:00 +30°C° 0.3 mm 4 m/S 723 mmHg 63%
    04:00 +30°C° 0.3 mm 3 m/S 723 mmHg 63%
    05:00 +30°C° 0.3 mm 2 m/S 723 mmHg 63%
    06:00 +30°C° 0 mm 2 m/S 723 mmHg 60%
    07:00 +31°C° 0 mm 2 m/S 724 mmHg 58%
    08:00 +31°C° 0 mm 2 m/S 724 mmHg 55%
    09:00 +33°C° 0 mm 3 m/S 724 mmHg 51%
    10:00 +34°C° 0 mm 3 m/S 724 mmHg 46%
    11:00 +35°C° 0 mm 4 m/S 724 mmHg 41%
    12:00 +36°C° 0 mm 4 m/S 723 mmHg 39%
    13:00 +37°C° 0 mm 4 m/S 723 mmHg 37%
    14:00 +38°C° 0 mm 4 m/S 722 mmHg 34%
    15:00 +38°C° 0.1 mm 4 m/S 722 mmHg 36%
    16:00 +38°C° 0.1 mm 4 m/S 721 mmHg 37%
    17:00 +37°C° 0.1 mm 4 m/S 721 mmHg 38%
    18:00 +36°C° 0.6 mm 4 m/S 721 mmHg 42%
    19:00 +35°C° 0.6 mm 3 m/S 722 mmHg 45%
    20:00 +34°C° 0.6 mm 3 m/S 722 mmHg 49%
    21:00 +34°C° 0.1 mm 3 m/S 722 mmHg 51%
    22:00 +34°C° 0.1 mm 3 m/S 723 mmHg 52%
    23:00 +33°C° 0.1 mm 3 m/S 723 mmHg 54%

    4 Juni, Donnerstag

    Zeit Temperatur Niederschläge Wind Luftdruck Luftfeuchtigkeit
    00:00 +33°C° 0 mm 4 m/S 723 mmHg 55%
    01:00 +32°C° 0 mm 5 m/S 722 mmHg 57%
    02:00 +32°C° 0 mm 5 m/S 722 mmHg 59%
    03:00 +30°C° 0 mm 6 m/S 722 mmHg 60%
    04:00 +30°C° 0 mm 6 m/S 722 mmHg 61%
    05:00 +29°C° 0 mm 6 m/S 722 mmHg 63%
    06:00 +30°C° 0 mm 6 m/S 723 mmHg 60%
    07:00 +32°C° 0 mm 7 m/S 723 mmHg 57%
    08:00 +33°C° 0 mm 7 m/S 724 mmHg 54%
    09:00 +34°C° 0 mm 8 m/S 723 mmHg 51%
    10:00 +35°C° 0 mm 8 m/S 723 mmHg 48%
    11:00 +37°C° 0 mm 8 m/S 723 mmHg 44%
    12:00 +38°C° 0 mm 8 m/S 722 mmHg 43%
    13:00 +39°C° 0 mm 8 m/S 722 mmHg 41%
    14:00 +39°C° 0 mm 8 m/S 721 mmHg 39%
    15:00 +39°C° 0 mm 8 m/S 721 mmHg 40%
    16:00 +38°C° 0 mm 8 m/S 721 mmHg 41%
    17:00 +36°C° 0 mm 7 m/S 721 mmHg 42%
    18:00 +36°C° 0 mm 7 m/S 722 mmHg 44%
    19:00 +35°C° 0 mm 7 m/S 722 mmHg 46%
    20:00 +34°C° 0 mm 7 m/S 723 mmHg 48%
    21:00 +33°C° 0 mm 6 m/S 723 mmHg 51%
    22:00 +33°C° 0 mm 6 m/S 723 mmHg 55%
    23:00 +32°C° 0 mm 5 m/S 723 mmHg 58%
    Mehr zeigen